| time (UTC) | temp F | wind direction | speed MPH | gust MPH | rain 1hr in | rain 24hr in | rain mn in | humidity % | barometer mb |
| 20260906131535 | 60 | 55 | 0.0 | 0.0 | 0.00 | 0.12 | 0.12 | 93 | 1016.7 |
| 20260906130036 | 60 | 59 | 0.0 | 0.0 | 0.00 | 0.12 | 0.12 | 94 | 1016.7 |
| 20260906124504 | 59 | 15 | 0.0 | 0.0 | 0.00 | 0.12 | 0.12 | 94 | 1016.6 |
| 20260906123015 | 60 | 17 | 0.0 | 0.0 | 0.00 | 0.12 | 0.12 | 94 | 1016.6 |
| 20260906121504 | 60 | 5 | 0.0 | 0.0 | 0.00 | 0.12 | 0.12 | 94 | 1016.3 |
| 20260906120007 | 60 | 17 | 0.0 | 0.0 | 0.00 | 0.12 | 0.12 | 94 | 1016.1 |
| 20260906114507 | 59 | 17 | 0.0 | 0.0 | 0.01 | 0.12 | 0.12 | 94 | 1015.9 |
| 20260906113006 | 59 | 17 | 0.0 | 0.0 | 0.01 | 0.12 | 0.12 | 94 | 1015.9 |
| 20260906111507 | 59 | 17 | 0.0 | 0.0 | 0.01 | 0.12 | 0.12 | 94 | 1015.6 |
| 20260906110010 | 59 | 17 | 0.0 | 0.0 | 0.01 | 0.12 | 0.12 | 94 | 1015.4 |
| 20260906104508 | 58 | 17 | 0.0 | 0.0 | 0.00 | 0.11 | 0.11 | 93 | 1015.0 |
| 20260906103008 | 59 | 17 | 0.0 | 0.0 | 0.00 | 0.11 | 0.11 | 93 | 1015.0 |
| 20260906101510 | 59 | 17 | 0.0 | 0.0 | 0.00 | 0.11 | 0.11 | 93 | 1015.0 |
| 20260906100009 | 59 | 17 | 0.0 | 0.0 | 0.00 | 0.11 | 0.11 | 93 | 1015.0 |
| 20260906094510 | 59 | 17 | 0.0 | 0.0 | 0.00 | 0.11 | 0.11 | 93 | 1014.9 |
| 20260906093020 | 59 | 17 | 0.0 | 0.0 | 0.00 | 0.11 | 0.11 | 93 | 1014.6 |
| 20260906091520 | 59 | 17 | 0.0 | 0.0 | 0.00 | 0.11 | 0.11 | 93 | 1014.5 |
| 20260906090020 | 59 | 17 | 0.0 | 0.0 | 0.00 | 0.11 | 0.11 | 93 | 1014.4 |
| 20260906084516 | 59 | 17 | 0.0 | 0.0 | 0.00 | 0.11 | 0.11 | 93 | 1014.3 |
| 20260906083015 | 59 | 17 | 0.0 | 0.0 | 0.00 | 0.11 | 0.11 | 93 | 1014.3 |
| 20260906081527 | 60 | 17 | 0.0 | 0.0 | 0.00 | 0.11 | 0.11 | 93 | 1014.3 |
| 20260906080015 | 60 | 17 | 0.0 | 0.0 | 0.00 | 0.11 | 0.11 | 93 | 1014.3 |
| 20260906074516 | 60 | 17 | 0.0 | 0.0 | 0.00 | 0.11 | 0.11 | 92 | 1014.3 |
| 20260906073032 | 61 | 17 | 0.0 | 0.0 | 0.02 | 0.11 | 0.11 | 92 | 1014.2 |
| 20260906071517 | 61 | 17 | 0.0 | 0.0 | 0.09 | 0.11 | 0.11 | 92 | 1014.2 |
| 20260906070024 | 61 | 17 | 0.0 | 0.0 | 0.09 | 0.11 | 0.11 | 92 | 1014.3 |
| 20260906064521 | 61 | 17 | 0.0 | 0.0 | 0.10 | 0.11 | 0.11 | 92 | 1014.3 |
| 20260906063018 | 62 | 17 | 0.0 | 0.0 | 0.08 | 0.09 | 0.09 | 92 | 1014.4 |
| 20260906061521 | 62 | 17 | 0.0 | 0.0 | 0.02 | 0.02 | 0.02 | 92 | 1014.3 |
| 20260906060018 | 62 | 17 | 0.0 | 0.0 | 0.02 | 0.02 | 0.02 | 92 | 1014.2 |
| 20260906054522 | 63 | 19 | 0.0 | 0.0 | 0.01 | 0.01 | 0.01 | 92 | 1014.4 |
| 20260906053033 | 63 | 20 | 0.0 | 0.0 | 0.01 | 0.01 | 0.01 | 92 | 1014.3 |
| 20260906051524 | 64 | 20 | 0.0 | 0.0 | 0.00 | 0.00 | 0.00 | 92 | 1014.3 |
| 20260906050024 | 64 | 20 | 0.0 | 0.0 | 0.00 | 0.00 | 0.00 | 92 | 1014.3 |
| 20260906044518 | 64 | 19 | 0.0 | 0.0 | 0.00 | 0.00 | 0.00 | 92 | 1014.3 |
| 20260906043038 | 63 | 19 | 0.0 | 0.0 | 0.00 | 0.00 | 0.00 | 92 | 1014.2 |
| 20260906041523 | 63 | 20 | 0.0 | 0.0 | 0.00 | 0.00 | 0.00 | 92 | 1014.2 |
| 20260906040027 | 63 | 20 | 0.0 | 0.0 | 0.00 | 0.00 | 0.00 | 91 | 1014.1 |
| 20260906034528 | 63 | 20 | 0.0 | 0.0 | 0.00 | 0.00 | 0.00 | 91 | 1014.1 |
| 20260906033027 | 64 | 19 | 0.0 | 0.0 | 0.00 | 0.00 | 0.00 | 91 | 1014.0 |
| 20260906031526 | 64 | 19 | 0.0 | 0.0 | 0.00 | 0.00 | 0.00 | 91 | 1014.0 |
| 20260906030028 | 63 | 20 | 0.0 | 0.0 | 0.00 | 0.00 | 0.00 | 91 | 1014.1 |
| 20260906024512 | 63 | 20 | 0.0 | 0.0 | 0.00 | 0.00 | 0.00 | 90 | 1014.1 |
| 20260906023019 | 63 | 20 | 0.0 | 0.0 | 0.00 | 0.00 | 0.00 | 90 | 1013.9 |
| 20260906021524 | 63 | 20 | 0.0 | 0.0 | 0.00 | 0.00 | 0.00 | 89 | 1013.9 |
| 20260906020031 | 64 | 19 | 0.0 | 0.0 | 0.00 | 0.00 | 0.00 | 88 | 1013.7 |
| 20260906014542 | 64 | 20 | 0.0 | 0.0 | 0.00 | 0.00 | 0.00 | 86 | 1013.6 |
| 20260906013033 | 65 | 20 | 0.0 | 0.0 | 0.00 | 0.00 | 0.00 | 85 | 1013.7 |
| 20260906011521 | 65 | 20 | 0.0 | 0.0 | 0.00 | 0.00 | 0.00 | 84 | 1013.7 |
| 20260906010027 | 66 | 20 | 0.0 | 0.0 | 0.00 | 0.00 | 0.00 | 83 | 1013.4 |
| 20260906004529 | 66 | 19 | 0.0 | 0.0 | 0.00 | 0.00 | 0.00 | 82 | 1013.2 |
| 20260906003030 | 66 | 20 | 0.0 | 0.0 | 0.00 | 0.00 | 0.00 | 82 | 1013.2 |
| 20260906001530 | 66 | 20 | 0.0 | 0.0 | 0.00 | 0.00 | 0.00 | 81 | 1013.1 |
| 20260906000023 | 67 | 20 | 0.0 | 0.0 | 0.00 | 0.00 | 0.00 | 80 | 1012.9 |
| 20260905234529 | 68 | 20 | 0.0 | 0.0 | 0.00 | 0.00 | 0.00 | 79 | 1012.7 |
| 20260905233030 | 69 | 19 | 0.0 | 0.0 | 0.00 | 0.00 | 0.00 | 77 | 1012.4 |
| 20260905231535 | 69 | 20 | 0.0 | 0.0 | 0.00 | 0.00 | 0.00 | 76 | 1012.4 |
| 20260905230038 | 70 | 20 | 0.0 | 0.0 | 0.00 | 0.00 | 0.00 | 76 | 1012.3 |
| 20260905224529 | 70 | 20 | 0.0 | 0.0 | 0.00 | 0.00 | 0.00 | 76 | 1012.2 |
| 20260905223033 | 70 | 19 | 0.0 | 0.0 | 0.00 | 0.00 | 0.00 | 75 | 1012.3 |
| 20260905221530 | 71 | 19 | 0.0 | 0.0 | 0.00 | 0.00 | 0.00 | 74 | 1012.1 |
| 20260905220031 | 71 | 32 | 0.0 | 0.0 | 0.00 | 0.00 | 0.00 | 75 | 1012.1 |
| 20260905214532 | 71 | 32 | 0.0 | 0.0 | 0.00 | 0.00 | 0.00 | 74 | 1012.0 |
| 20260905213026 | 71 | 38 | 0.0 | 0.0 | 0.00 | 0.00 | 0.00 | 74 | 1011.8 |
| 20260905211523 | 72 | 38 | 0.0 | 0.0 | 0.00 | 0.00 | 0.00 | 77 | 1011.7 |
| 20260905210007 | 72 | 38 | 0.0 | 0.0 | 0.00 | 0.00 | 0.00 | 75 | 1011.5 |
| 20260905204517 | 72 | 37 | 0.0 | 0.0 | 0.00 | 0.00 | 0.00 | 74 | 1011.5 |
| 20260905203022 | 72 | 39 | 0.0 | 0.0 | 0.00 | 0.00 | 0.00 | 73 | 1011.5 |
| 20260905201534 | 72 | 39 | 0.0 | 0.0 | 0.00 | 0.00 | 0.00 | 73 | 1011.4 |
| 20260905200007 | 72 | 43 | 0.0 | 0.0 | 0.00 | 0.00 | 0.00 | 73 | 1011.4 |
| 20260905194532 | 72 | 43 | 0.0 | 0.0 | 0.00 | 0.00 | 0.00 | 74 | 1011.4 |
| 20260905193020 | 72 | 42 | 0.0 | 0.0 | 0.00 | 0.00 | 0.00 | 74 | 1011.3 |
| 20260905191527 | 73 | 71 | 0.0 | 0.0 | 0.00 | 0.00 | 0.00 | 74 | 1011.3 |
| 20260905190044 | 73 | 63 | 0.0 | 0.0 | 0.00 | 0.00 | 0.00 | 74 | 1011.4 |
| 20260905184507 | 73 | 18 | 0.0 | 0.0 | 0.00 | 0.00 | 0.00 | 73 | 1011.3 |
| 20260905183014 | 72 | 18 | 0.0 | 0.0 | 0.00 | 0.00 | 0.00 | 75 | 1011.4 |
| 20260905181533 | 72 | 18 | 0.0 | 0.0 | 0.00 | 0.00 | 0.00 | 77 | 1011.5 |
| 20260905180025 | 71 | 18 | 0.0 | 0.0 | 0.00 | 0.00 | 0.00 | 78 | 1011.7 |
| 20260905174530 | 73 | 18 | 0.0 | 0.0 | 0.00 | 0.00 | 0.00 | 72 | 1011.7 |
| 20260905173035 | 75 | 32 | 0.0 | 0.0 | 0.00 | 0.00 | 0.00 | 67 | 1011.6 |
| 20260905171520 | 73 | 360 | 0.0 | 0.0 | 0.00 | 0.00 | 0.00 | 69 | 1011.8 |
| 20260905170019 | 73 | 352 | 0.0 | 0.0 | 0.00 | 0.00 | 0.00 | 71 | 1011.8 |
| 20260905164537 | 75 | 347 | 0.0 | 0.0 | 0.00 | 0.00 | 0.00 | 67 | 1011.6 |
| 20260905163031 | 73 | 24 | 0.0 | 10.0 | 0.00 | 0.00 | 0.00 | 70 | 1011.6 |
| 20260905161532 | 74 | 25 | 0.0 | 0.0 | 0.00 | 0.00 | 0.00 | 66 | 1011.6 |
| 20260905160016 | 72 | 32 | 0.0 | 0.0 | 0.00 | 0.00 | 0.00 | 69 | 1011.5 |
| 20260905154523 | 73 | 329 | 0.0 | 0.0 | 0.00 | 0.00 | 0.00 | 68 | 1011.5 |
| 20260905153039 | 74 | 46 | 0.0 | 0.0 | 0.00 | 0.00 | 0.00 | 65 | 1011.5 |
| 20260905151537 | 73 | 88 | 0.0 | 0.0 | 0.00 | 0.00 | 0.00 | 67 | 1011.6 |
| 20260905150033 | 72 | 46 | 0.0 | 0.0 | 0.00 | 0.00 | 0.00 | 69 | 1011.7 |
| 20260905144526 | 71 | 24 | 0.0 | 0.0 | 0.00 | 0.00 | 0.00 | 70 | 1011.6 |
| 20260905143025 | 71 | 29 | 0.0 | 0.0 | 0.00 | 0.00 | 0.00 | 73 | 1011.5 |
| 20260905141530 | 69 | 12 | 0.0 | 1.0 | 0.00 | 0.00 | 0.00 | 75 | 1011.6 |
| 20260905140032 | 69 | 56 | 0.0 | 0.0 | 0.00 | 0.00 | 0.00 | 76 | 1011.6 |
| 20260905134532 | 68 | 34 | 0.0 | 0.0 | 0.00 | 0.00 | 0.00 | 79 | 1011.8 |
| 20260905133027 | 66 | 44 | 0.0 | 0.0 | 0.00 | 0.00 | 0.00 | 83 | 1011.8 |